Simultaneous Nadir Overpasses (SNOs) Predictions

Prediction of SNOs near equator between AQUA and NPP Satellite Orbit:

Table of predicted SNOs near equator for the next 14.0 days since TLE Epoch: 5/8/2020
Index Date (AQUA) Time (AQUA) AQUA Lat,Lon Date (NPP) Time (NPP) NPP Lat,Lon Distance(km) Time Diff (sec)
1 05/11/2020 00:16:04 -30.00, 15.16 05/11/2020 00:06:04 -30.18, 14.57 60.59 600
2 05/11/2020 00:58:00 2.55,-170.94 05/11/2020 00:49:00 2.44,-171.44 57.17 540
3 05/11/2020 01:46:07 1.95, -2.32 05/11/2020 01:38:23 2.12, -3.09 87.37 464
4 05/13/2020 16:25:45 -5.51, 136.70 05/13/2020 16:15:57 -5.46, 136.36 37.71 588
5 05/13/2020 17:14:02 1.01, -54.72 05/13/2020 17:05:28 0.86, -55.31 67.44 514
6 05/13/2020 18:02:08 3.55, 113.91 05/13/2020 17:54:50 3.76, 113.05 97.35 438
7 05/16/2020 08:41:46 -3.91,-107.07 05/16/2020 08:32:24 -3.83,-107.50 47.81 562
8 05/16/2020 09:30:02 -0.64, 61.51 05/16/2020 09:21:55 -0.77, 60.83 77.55 487
9 05/19/2020 00:15:42 28.74,-164.51 05/19/2020 00:05:42 28.77,-165.05 52.59 600
10 05/19/2020 00:57:47 -2.38, 9.14 05/19/2020 00:48:51 -2.25, 8.63 58.17 536
11 05/19/2020 01:46:03 -2.17, 177.72 05/19/2020 01:38:22 -2.35, 176.95 87.72 461
12 05/21/2020 16:25:41 5.32, -43.26 05/21/2020 16:15:56 5.25, -43.60 38.10 585
13 05/21/2020 17:13:47 -0.74, 125.37 05/21/2020 17:05:18 -0.62, 124.77 68.36 509
14 05/21/2020 18:02:03 -3.81, -66.04 05/21/2020 17:54:49 -3.98, -66.91 97.79 434




NCC Satellite Simultaneous Nadir Overpasses (SNOs) Prediction Service
